Other Surface Observations
Issued by NWS Charleston, SC

Home | Current Version | Previous Version | Text Only | Print | Product List | Glossary On
Versions: 1 2 3 4 5 6 7 8 9 10 11 12 13 14 15 16 17 18 19 20 21 22 23 24 25 26 27 28 29 30 31 32 33 34 35 36 37 38 39 40 41 42 43 44 45 46 47 48 49 50
000
SXUS52 KCHS 211925
OSOCHS

MARINE OBSERVATIONS
NATIONAL WEATHER SERVICE CHARLESTON SC
200 PM EST SUN DEC 21 2014

...DOWNTOWN CHARLESTON AND HARBOR...

CITY           SKY/WX    TMP DP  RH WIND       PRES   REMARKS
WATERFRONT PRK NOT AVBL
FORT JOHNSON   NOT AVBL

...LAKE MOULTRIE...

CITY           SKY/WX    TMP DP  RH WIND       PRES   REMARKS
PINOPOLIS        N/A     50  41  71 E10       30.10F

...LAKE AND SUPPLEMENTAL COASTAL OBSERVATIONS...

STATION/POSITION TIME  TEMP    WIND        PRES    WAVE   SWELL
                       AIR SEA DIR/SP/G            HT/PER HT/PER/DIR
                 (UTC) (F)     (DEG/KT/KT) (MB)    (FT/S) (FT/S/D)
FORT PULASKI     1900   49 56   10/  7/ 10 1020.7F
SAPELO ISLAND    1900   53      30/ 12     1019.0S
UPR LAKE MARION  NOT AVBL
WINYAH BAY       1900   48      40/ 10     1021.0F
LAKE MURRAY      1900   53      90/  6/ 10 1021.3F
ACE BASIN NERRS  1900   49      30/  3     1021.0S


...C-MAN AND BUOY OBSERVATIONS...

STATION/POSITION TIME  TEMP    WIND        PRES    WAVE   SWELL
                       AIR SEA DIR/SP/G            HT/PER HT/PER/DIR
                 (UTC) (F)     (DEG/KT/KT) (MB)    (FT/S) (FT/S/D)
BUOY 41004       1900   60 69   30/ 21/ 23 1019.4F   6/ 6   3/ 7
BUOY 41008       1900   56 59   40/ 17/ 21 1018.8F   5/ 7   2/100/10
FOLLY BEACH CMAN 1900   49      40/ 19/ 20 1021.3F
CAPERS NS BUOY   1800   50      60/ 19/ 23   N/A
FRIPP NS BUOY    NOT AVBL
5E ST. MARYS GA  1900      61                N/A     5/ 6


STATION/POSITION TIME  TEMP    WIND        PRES    WAVE   SWELL
                       AIR SEA DIR/SP/G            HT/PER HT/PER/DIR
                 (UTC) (F)     (DEG/KT/KT) (MB)    (FT/S) (FT/S/D)
FRYING PAN BUOY  1900   56 69   40/ 19/ 23 1022.2S   6/ 6
BUOY 41025       1900   53                 1023.5F   3/ 4
CAPE LOOKOUT NC  1900   45      20/ 16/ 20 1023.2F
BUOY 41002       1756   70 71  140/ 17/ 23 1017.8    7/ 6   2/100/10
BUOY 41010       1900   75 77  200/ 12/ 14 1018.2F   3/10   3/120/10
ST AUGUSTINE FL  1900   62     360/ 13/ 14 1017.7F

$$



USA.gov is the U.S. government's official web portal to all federal, state and local government web resources and services.